Tracking 19832 objects as of 26-Aug-2019
HD Live streaming from Space Station
objects crossing your sky now

ARIANE 5 DEB (SYLDA)

Track ARIANE 5 DEB (SYLDA) now!
10-day predictions


NORAD ID: 38781
Int'l Code: 2012-051D
Perigee: 234.5 km
Apogee: 16,096.9 km
Inclination: 6.4 °
Period: 290.7 minutes
Semi major axis: 14536 km
RCS: 10.0393 m2 (large)
Launch date: September 28, 2012
Source: France (FR)
Launch site: FRENCH GUIANA (FRGUI)

Note: This is SATELLITE DEBRIS
aabbcc
Your satellite tracking list
Your tracking list is empty




NASA's NSSDC Master Catalog

Two Line Element Set (TLE):
1 38781U 12051D   19236.71824993 +.00026962 +00000-0 +12961-2 0  9996
2 38781 006.3977 058.5330 5455952 327.1783 008.3867 04.95340518104984
Source of the keplerian elements: AFSPC